Time,TemperatureF,DewpointF,PressureIn,WindDirection,WindDirectionDegrees,WindSpeedMPH,WindSpeedGustMPH,Humidity,HourlyPrecipIn,Conditions,Clouds,dailyrainin,SoftwareType,DateUTC
2013-01-23 00:01:00,34.4,12.0,30.41,NW,319,0.0,0.0,39,0.00,,,0.00,LWC V2.11 B50,2013-01-23 07:01:00,
2013-01-23 00:06:00,34.1,12.3,30.41,NW,319,0.0,0.0,40,0.00,,,0.00,LWC V2.11 B50,2013-01-23 07:06:00,
2013-01-23 00:11:00,33.7,11.4,30.41,NW,319,0.0,0.0,39,0.00,,,0.00,LWC V2.11 B50,2013-01-23 07:11:00,
2013-01-23 00:16:00,33.2,10.4,30.41,NW,319,0.0,0.0,38,0.00,,,0.00,LWC V2.11 B50,2013-01-23 07:16:00,
2013-01-23 00:21:00,32.6,10.4,30.41,NW,319,0.0,0.0,39,0.00,,,0.00,LWC V2.11 B50,2013-01-23 07:21:00,
2013-01-23 00:26:00,32.5,11.4,30.41,NW,319,0.0,0.0,41,0.00,,,0.00,LWC V2.11 B50,2013-01-23 07:26:00,
2013-01-23 00:31:00,32.4,11.4,30.41,NW,319,0.0,0.0,41,0.00,,,0.00,LWC V2.11 B50,2013-01-23 07:31:00,
2013-01-23 00:36:00,32.4,10.8,30.41,NW,319,0.0,0.0,40,0.00,,,0.00,LWC V2.11 B50,2013-01-23 07:36:00,
2013-01-23 00:41:00,32.1,11.1,30.41,NW,319,0.0,0.0,41,0.00,,,0.00,LWC V2.11 B50,2013-01-23 07:41:00,
2013-01-23 00:46:00,31.7,10.7,30.41,NW,319,0.0,0.0,41,0.00,,,0.00,LWC V2.11 B50,2013-01-23 07:46:00,
2013-01-23 00:51:00,31.5,11.1,30.41,NW,319,0.0,0.0,42,0.00,,,0.00,LWC V2.11 B50,2013-01-23 07:51:00,
2013-01-23 00:56:00,31.4,11.0,30.41,NW,319,0.0,0.0,42,0.00,,,0.00,LWC V2.11 B50,2013-01-23 07:56:00,
2013-01-23 01:01:00,31.2,11.3,30.41,NW,319,0.0,0.0,43,0.00,,,0.00,LWC V2.11 B50,2013-01-23 08:01:00,
2013-01-23 01:06:00,31.0,11.2,30.41,NW,319,0.0,0.0,43,0.00,,,0.00,LWC V2.11 B50,2013-01-23 08:06:00,
2013-01-23 01:11:00,30.8,10.4,30.42,NW,319,0.0,0.0,42,0.00,,,0.00,LWC V2.11 B50,2013-01-23 08:11:00,
2013-01-23 01:16:00,30.6,10.3,30.42,NW,319,0.0,0.0,42,0.00,,,0.00,LWC V2.11 B50,2013-01-23 08:16:00,
2013-01-23 01:21:00,30.3,11.0,30.42,NW,319,0.0,0.0,44,0.00,,,0.00,LWC V2.11 B50,2013-01-23 08:21:00,
2013-01-23 01:26:00,30.2,10.9,30.42,NW,319,0.0,0.0,44,0.00,,,0.00,LWC V2.11 B50,2013-01-23 08:26:00,
2013-01-23 01:31:00,30.0,10.2,30.42,NW,319,0.0,0.0,43,0.00,,,0.00,LWC V2.11 B50,2013-01-23 08:31:00,
2013-01-23 01:36:00,29.9,10.7,30.41,NW,319,0.0,0.0,44,0.00,,,0.00,LWC V2.11 B50,2013-01-23 08:36:00,
2013-01-23 01:41:00,29.7,10.0,30.42,NW,319,0.0,0.0,43,0.00,,,0.00,LWC V2.11 B50,2013-01-23 08:41:00,
2013-01-23 01:46:00,29.5,9.8,30.41,NW,319,0.0,0.0,43,0.00,,,0.00,LWC V2.11 B50,2013-01-23 08:46:00,
2013-01-23 01:51:00,29.2,9.5,30.42,NW,319,0.0,0.0,43,0.00,,,0.00,LWC V2.11 B50,2013-01-23 08:51:00,
2013-01-23 01:56:00,29.0,10.4,30.42,NW,319,0.0,0.0,45,0.00,,,0.00,LWC V2.11 B50,2013-01-23 08:56:00,
2013-01-23 02:01:00,28.8,9.7,30.42,NW,319,0.0,0.0,44,0.00,,,0.00,LWC V2.11 B50,2013-01-23 09:01:00,
2013-01-23 02:06:00,28.6,10.0,30.42,NW,319,0.0,0.0,45,0.00,,,0.00,LWC V2.11 B50,2013-01-23 09:06:00,
2013-01-23 02:11:00,28.5,8.9,30.42,NW,319,0.0,0.0,43,0.00,,,0.00,LWC V2.11 B50,2013-01-23 09:11:00,
2013-01-23 02:16:00,28.5,9.4,30.42,NW,319,0.0,0.0,44,0.00,,,0.00,LWC V2.11 B50,2013-01-23 09:16:00,
2013-01-23 02:21:00,28.4,9.3,30.42,NW,319,0.0,0.0,44,0.00,,,0.00,LWC V2.11 B50,2013-01-23 09:21:00,
2013-01-23 02:26:00,28.1,9.0,30.42,NW,319,0.0,0.0,44,0.00,,,0.00,LWC V2.11 B50,2013-01-23 09:26:00,
2013-01-23 02:31:00,27.9,9.3,30.42,NW,319,0.0,0.0,45,0.00,,,0.00,LWC V2.11 B50,2013-01-23 09:31:00,
2013-01-23 02:36:00,27.6,9.1,30.42,NW,319,0.0,0.0,45,0.00,,,0.00,LWC V2.11 B50,2013-01-23 09:36:00,
2013-01-23 02:41:00,27.5,9.0,30.42,NW,319,0.0,0.0,45,0.00,,,0.00,LWC V2.11 B50,2013-01-23 09:41:00,
2013-01-23 02:46:00,27.3,7.8,30.42,NW,319,0.0,0.0,43,0.00,,,0.00,LWC V2.11 B50,2013-01-23 09:46:00,
2013-01-23 02:51:00,27.0,8.0,30.42,NW,319,0.0,0.0,44,0.00,,,0.00,LWC V2.11 B50,2013-01-23 09:51:00,
2013-01-23 02:56:00,26.7,7.8,30.42,NW,319,0.0,0.0,44,0.00,,,0.00,LWC V2.11 B50,2013-01-23 09:56:00,
2013-01-23 03:01:00,26.5,8.1,30.42,NW,319,0.0,0.0,45,0.00,,,0.00,LWC V2.11 B50,2013-01-23 10:01:00,
2013-01-23 03:06:00,26.4,8.0,30.43,NW,319,0.0,0.0,45,0.00,,,0.00,LWC V2.11 B50,2013-01-23 10:06:00,
2013-01-23 03:11:00,26.3,8.4,30.43,NW,319,0.0,0.0,46,0.00,,,0.00,LWC V2.11 B50,2013-01-23 10:11:00,
2013-01-23 03:16:00,26.2,7.8,30.43,NW,321,0.0,0.0,45,0.00,,,0.00,LWC V2.11 B50,2013-01-23 10:16:00,
2013-01-23 03:21:00,26.1,7.7,30.43,NW,321,0.0,0.0,45,0.00,,,0.00,LWC V2.11 B50,2013-01-23 10:21:00,
2013-01-23 03:26:00,26.2,8.3,30.43,NW,321,0.0,0.0,46,0.00,,,0.00,LWC V2.11 B50,2013-01-23 10:26:00,
2013-01-23 03:31:00,26.1,8.2,30.44,North,355,0.0,0.0,46,0.00,,,0.00,LWC V2.11 B50,2013-01-23 10:31:00,
2013-01-23 03:36:00,26.5,8.6,30.44,NW,311,0.0,0.0,46,0.00,,,0.00,LWC V2.11 B50,2013-01-23 10:36:00,
2013-01-23 03:41:00,26.7,8.7,30.44,NW,311,0.0,0.0,46,0.00,,,0.00,LWC V2.11 B50,2013-01-23 10:41:00,
2013-01-23 03:46:00,26.8,8.3,30.44,NW,313,0.0,0.0,45,0.00,,,0.00,LWC V2.11 B50,2013-01-23 10:46:00,
2013-01-23 03:51:00,26.7,8.2,30.44,NW,313,0.0,0.0,45,0.00,,,0.00,LWC V2.11 B50,2013-01-23 10:51:00,
2013-01-23 03:56:00,26.6,8.2,30.44,NW,313,0.0,0.0,45,0.00,,,0.00,LWC V2.11 B50,2013-01-23 10:56:00,
2013-01-23 04:01:00,26.5,8.1,30.43,NW,317,0.0,3.0,45,0.00,,,0.00,LWC V2.11 B50,2013-01-23 11:01:00,
2013-01-23 04:06:00,26.6,7.7,30.43,ENE,60,0.0,2.0,44,0.00,,,0.00,LWC V2.11 B50,2013-01-23 11:06:00,
2013-01-23 04:11:00,26.4,7.5,30.44,NNE,32,0.0,0.0,44,0.00,,,0.00,LWC V2.11 B50,2013-01-23 11:11:00,
2013-01-23 04:16:00,26.5,8.1,30.44,NW,324,0.0,2.0,45,0.00,,,0.00,LWC V2.11 B50,2013-01-23 11:16:00,
2013-01-23 04:21:00,26.7,7.8,30.44,NW,324,0.0,0.0,44,0.00,,,0.00,LWC V2.11 B50,2013-01-23 11:21:00,
2013-01-23 04:26:00,26.6,7.7,30.44,NW,324,0.0,0.0,44,0.00,,,0.00,LWC V2.11 B50,2013-01-23 11:26:00,
2013-01-23 04:31:00,26.4,7.5,30.45,NW,324,0.0,0.0,44,0.00,,,0.00,LWC V2.11 B50,2013-01-23 11:31:00,
2013-01-23 04:36:00,26.2,7.8,30.44,NW,324,0.0,0.0,45,0.00,,,0.00,LWC V2.11 B50,2013-01-23 11:36:00,
2013-01-23 04:41:00,26.0,7.6,30.44,NW,312,0.0,2.0,45,0.00,,,0.00,LWC V2.11 B50,2013-01-23 11:41:00,
2013-01-23 04:46:00,25.8,7.4,30.44,NW,312,0.0,0.0,45,0.00,,,0.00,LWC V2.11 B50,2013-01-23 11:46:00,
2013-01-23 04:51:00,25.6,7.7,30.44,NW,312,0.0,1.0,46,0.00,,,0.00,LWC V2.11 B50,2013-01-23 11:51:00,
2013-01-23 04:57:00,26.0,8.6,30.44,NW,311,0.0,0.0,47,0.00,,,0.00,LWC V2.11 B50,2013-01-23 11:57:00,
2013-01-23 05:02:00,26.1,8.2,30.44,ESE,106,1.0,1.0,46,0.00,,,0.00,LWC V2.11 B50,2013-01-23 12:02:00,
2013-01-23 05:07:00,25.8,8.4,30.44,ESE,117,0.0,0.0,47,0.00,,,0.00,LWC V2.11 B50,2013-01-23 12:07:00,
2013-01-23 05:12:00,25.6,8.7,30.44,ESE,117,0.0,0.0,48,0.00,,,0.00,LWC V2.11 B50,2013-01-23 12:12:00,
2013-01-23 05:17:00,25.4,8.9,30.44,ESE,117,0.0,0.0,49,0.00,,,0.00,LWC V2.11 B50,2013-01-23 12:17:00,
2013-01-23 05:21:00,25.3,9.3,30.45,ESE,117,0.0,0.0,50,0.00,,,0.00,LWC V2.11 B50,2013-01-23 12:21:00,
2013-01-23 05:26:00,25.2,8.8,30.45,ESE,117,0.0,0.0,49,0.00,,,0.00,LWC V2.11 B50,2013-01-23 12:26:00,
2013-01-23 05:31:00,25.2,9.6,30.45,ESE,117,0.0,0.0,51,0.00,,,0.00,LWC V2.11 B50,2013-01-23 12:31:00,
2013-01-23 05:36:00,25.1,9.1,30.46,East,100,0.0,0.0,50,0.00,,,0.00,LWC V2.11 B50,2013-01-23 12:36:00,
2013-01-23 05:37:00,25.1,9.1,30.46,East,100,0.0,0.0,50,0.00,,,0.00,LWC V2.11 B50,2013-01-23 12:37:00,
2013-01-23 05:42:00,26.0,10.4,30.47,NW,320,0.0,0.0,51,0.00,,,0.00,LWC V2.11 B50,2013-01-23 12:42:00,
2013-01-23 05:47:00,26.4,9.9,30.47,NW,320,0.0,0.0,49,0.00,,,0.00,LWC V2.11 B50,2013-01-23 12:47:00,
2013-01-23 05:52:00,26.3,9.8,30.47,NW,323,0.0,1.0,49,0.00,,,0.00,LWC V2.11 B50,2013-01-23 12:52:00,
2013-01-23 05:57:00,26.1,9.1,30.47,East,86,0.0,0.0,48,0.00,,,0.00,LWC V2.11 B50,2013-01-23 12:57:00,
2013-01-23 06:01:00,25.9,9.4,30.47,East,90,0.0,1.0,49,0.00,,,0.00,LWC V2.11 B50,2013-01-23 13:01:00,
2013-01-23 06:06:00,25.7,9.2,30.47,East,90,0.0,0.0,49,0.00,,,0.00,LWC V2.11 B50,2013-01-23 13:06:00,
2013-01-23 06:11:00,25.4,9.4,30.47,East,90,0.0,0.0,50,0.00,,,0.00,LWC V2.11 B50,2013-01-23 13:11:00,
2013-01-23 06:16:00,25.0,9.5,30.47,East,90,0.0,0.0,51,0.00,,,0.00,LWC V2.11 B50,2013-01-23 13:16:00,
2013-01-23 06:21:00,24.9,9.8,30.47,East,90,0.0,0.0,52,0.00,,,0.00,LWC V2.11 B50,2013-01-23 13:21:00,
2013-01-23 06:26:00,24.8,9.7,30.47,East,90,0.0,0.0,52,0.00,,,0.00,LWC V2.11 B50,2013-01-23 13:26:00,
2013-01-23 06:31:00,24.7,9.6,30.47,East,90,0.0,0.0,52,0.00,,,0.00,LWC V2.11 B50,2013-01-23 13:31:00,
2013-01-23 06:36:00,24.6,9.9,30.46,East,90,0.0,0.0,53,0.00,,,0.00,LWC V2.11 B50,2013-01-23 13:36:00,
2013-01-23 06:41:00,24.4,9.8,30.47,East,90,0.0,0.0,53,0.00,,,0.00,LWC V2.11 B50,2013-01-23 13:41:00,
2013-01-23 06:46:00,24.3,9.7,30.46,East,90,0.0,0.0,53,0.00,,,0.00,LWC V2.11 B50,2013-01-23 13:46:00,
2013-01-23 06:51:00,24.1,9.9,30.46,NNW,340,0.0,0.0,54,0.00,,,0.00,LWC V2.11 B50,2013-01-23 13:51:00,
2013-01-23 06:56:00,24.2,10.0,30.46,NNW,340,0.0,0.0,54,0.00,,,0.00,LWC V2.11 B50,2013-01-23 13:56:00,
2013-01-23 07:01:00,24.3,10.1,30.46,WNW,291,0.0,0.0,54,0.00,,,0.00,LWC V2.11 B50,2013-01-23 14:01:00,
2013-01-23 07:06:00,24.4,10.6,30.46,NW,308,0.0,2.0,55,0.00,,,0.00,LWC V2.11 B50,2013-01-23 14:06:00,
2013-01-23 07:11:00,25.1,10.8,30.47,WNW,302,0.0,1.0,54,0.00,,,0.00,LWC V2.11 B50,2013-01-23 14:11:00,
2013-01-23 07:16:00,25.3,10.6,30.47,NNE,15,0.0,1.0,53,0.00,,,0.00,LWC V2.11 B50,2013-01-23 14:16:00,
2013-01-23 07:21:00,25.5,10.4,30.48,North,355,1.0,2.0,52,0.00,,,0.00,LWC V2.11 B50,2013-01-23 14:21:00,
2013-01-23 07:26:00,25.4,10.3,30.48,North,355,0.0,0.0,52,0.00,,,0.00,LWC V2.11 B50,2013-01-23 14:26:00,
2013-01-23 07:31:00,25.1,10.0,30.48,North,0,0.0,2.0,52,0.00,,,0.00,LWC V2.11 B50,2013-01-23 14:31:00,
2013-01-23 07:36:00,25.0,9.9,30.48,NW,310,0.0,0.0,52,0.00,,,0.00,LWC V2.11 B50,2013-01-23 14:36:00,
2013-01-23 07:41:00,25.0,9.9,30.49,NE,43,1.0,1.0,52,0.00,,,0.00,LWC V2.11 B50,2013-01-23 14:41:00,
2013-01-23 07:46:00,25.3,10.6,30.49,NE,52,3.0,5.0,53,0.00,,,0.00,LWC V2.11 B50,2013-01-23 14:46:00,
2013-01-23 07:51:00,25.6,10.4,30.49,NW,324,0.0,0.0,52,0.00,,,0.00,LWC V2.11 B50,2013-01-23 14:51:00,
2013-01-23 07:56:00,25.7,11.0,30.49,NW,319,0.0,1.0,53,0.00,,,0.00,LWC V2.11 B50,2013-01-23 14:56:00,
2013-01-23 08:01:00,26.0,11.7,30.49,NNE,28,0.0,0.0,54,0.00,,,0.00,LWC V2.11 B50,2013-01-23 15:01:00,
2013-01-23 08:06:00,26.7,12.3,30.49,North,0,0.0,1.0,54,0.00,,,0.00,LWC V2.11 B50,2013-01-23 15:06:00,
2013-01-23 08:11:00,27.5,13.1,30.49,NNW,331,2.0,2.0,54,0.00,,,0.00,LWC V2.11 B50,2013-01-23 15:11:00,
2013-01-23 08:16:00,28.4,13.5,30.49,NW,315,0.0,2.0,53,0.00,,,0.00,LWC V2.11 B50,2013-01-23 15:16:00,
2013-01-23 08:21:00,29.3,13.9,30.49,North,10,0.0,1.0,52,0.00,,,0.00,LWC V2.11 B50,2013-01-23 15:21:00,
2013-01-23 08:26:00,30.0,14.1,30.49,NW,309,0.0,4.0,51,0.00,,,0.00,LWC V2.11 B50,2013-01-23 15:26:00,
2013-01-23 08:31:00,30.7,13.8,30.49,NNE,26,0.0,2.0,49,0.00,,,0.00,LWC V2.11 B50,2013-01-23 15:31:00,
2013-01-23 08:36:00,31.4,14.5,30.49,NNW,348,0.0,2.0,49,0.00,,,0.00,LWC V2.11 B50,2013-01-23 15:36:00,
2013-01-23 08:41:00,31.9,14.0,30.49,North,0,3.0,3.0,47,0.00,,,0.00,LWC V2.11 B50,2013-01-23 15:41:00,
2013-01-23 08:46:00,32.5,14.5,30.48,NNE,14,2.0,2.0,47,0.00,,,0.00,LWC V2.11 B50,2013-01-23 15:46:00,
2013-01-23 08:51:00,33.1,14.6,30.49,North,9,0.0,1.0,46,0.00,,,0.00,LWC V2.11 B50,2013-01-23 15:51:00,
2013-01-23 08:56:00,33.8,14.7,30.49,NNE,26,0.0,1.0,45,0.00,,,0.00,LWC V2.11 B50,2013-01-23 15:56:00,
2013-01-23 09:01:00,34.8,14.6,30.49,NNE,12,0.0,2.0,43,0.00,,,0.00,LWC V2.11 B50,2013-01-23 16:01:00,
2013-01-23 09:06:00,35.7,14.9,30.49,NNW,344,0.0,3.0,42,0.00,,,0.00,LWC V2.11 B50,2013-01-23 16:06:00,
2013-01-23 09:11:00,36.6,14.6,30.49,NNE,22,1.0,1.0,40,0.00,,,0.00,LWC V2.11 B50,2013-01-23 16:11:00,
2013-01-23 09:16:00,37.4,14.7,30.49,NNW,347,0.0,3.0,39,0.00,,,0.00,LWC V2.11 B50,2013-01-23 16:16:00,
2013-01-23 09:21:00,38.1,14.8,30.49,NNE,20,3.0,4.0,38,0.00,,,0.00,LWC V2.11 B50,2013-01-23 16:21:00,
2013-01-23 09:26:00,38.6,14.6,30.49,North,350,0.0,4.0,37,0.00,,,0.00,LWC V2.11 B50,2013-01-23 16:26:00,
2013-01-23 09:31:00,39.2,14.5,30.49,NE,34,0.0,4.0,36,0.00,,,0.00,LWC V2.11 B50,2013-01-23 16:31:00,
2013-01-23 09:36:00,39.8,14.4,30.49,NE,38,4.0,4.0,35,0.00,,,0.00,LWC V2.11 B50,2013-01-23 16:36:00,
2013-01-23 09:41:00,40.3,14.2,30.49,NE,42,3.0,5.0,34,0.00,,,0.00,LWC V2.11 B50,2013-01-23 16:41:00,
2013-01-23 09:46:00,40.8,14.6,30.49,NE,49,5.0,7.0,34,0.00,,,0.00,LWC V2.11 B50,2013-01-23 16:46:00,
2013-01-23 09:51:00,41.1,14.2,30.49,NE,34,2.0,4.0,33,0.00,,,0.00,LWC V2.11 B50,2013-01-23 16:51:00,
2013-01-23 09:56:00,41.5,13.9,30.49,NE,51,3.0,7.0,32,0.00,,,0.00,LWC V2.11 B50,2013-01-23 16:56:00,
2013-01-23 10:01:00,41.6,14.0,30.49,ENE,74,7.0,7.0,32,0.00,,,0.00,LWC V2.11 B50,2013-01-23 17:01:00,
2013-01-23 10:06:00,41.9,14.2,30.49,NE,34,0.0,5.0,32,0.00,,,0.00,LWC V2.11 B50,2013-01-23 17:06:00,
2013-01-23 10:11:00,42.2,13.8,30.49,ENE,57,1.0,3.0,31,0.00,,,0.00,LWC V2.11 B50,2013-01-23 17:11:00,
2013-01-23 10:16:00,42.7,14.2,30.49,NNE,23,0.0,1.0,31,0.00,,,0.00,LWC V2.11 B50,2013-01-23 17:16:00,
2013-01-23 10:21:00,43.4,14.1,30.49,East,82,1.0,2.0,30,0.00,,,0.00,LWC V2.11 B50,2013-01-23 17:21:00,
2013-01-23 10:26:00,43.9,14.5,30.49,ENE,78,0.0,1.0,30,0.00,,,0.00,LWC V2.11 B50,2013-01-23 17:26:00,
2013-01-23 10:31:00,44.4,14.2,30.48,NE,44,0.0,2.0,29,0.00,,,0.00,LWC V2.11 B50,2013-01-23 17:31:00,
2013-01-23 10:36:00,44.9,14.6,30.48,East,83,1.0,2.0,29,0.00,,,0.00,LWC V2.11 B50,2013-01-23 17:36:00,
2013-01-23 10:41:00,45.5,14.3,30.48,ESE,113,0.0,2.0,28,0.00,,,0.00,LWC V2.11 B50,2013-01-23 17:41:00,
2013-01-23 10:46:00,46.1,14.0,30.48,NNE,30,0.0,2.0,27,0.00,,,0.00,LWC V2.11 B50,2013-01-23 17:46:00,
2013-01-23 10:51:00,46.6,14.4,30.48,NE,38,2.0,2.0,27,0.00,,,0.00,LWC V2.11 B50,2013-01-23 17:51:00,
2013-01-23 10:56:00,47.0,14.8,30.48,NE,34,0.0,2.0,27,0.00,,,0.00,LWC V2.11 B50,2013-01-23 17:56:00,
2013-01-23 11:01:00,47.4,14.3,30.48,NNW,344,0.0,1.0,26,0.00,,,0.00,LWC V2.11 B50,2013-01-23 18:01:00,
2013-01-23 11:06:00,47.7,13.6,30.48,NE,40,0.0,3.0,25,0.00,,,0.00,LWC V2.11 B50,2013-01-23 18:06:00,
2013-01-23 11:11:00,47.9,13.8,30.48,NNE,30,0.0,0.0,25,0.00,,,0.00,LWC V2.11 B50,2013-01-23 18:11:00,
2013-01-23 11:16:00,48.4,14.2,30.48,North,9,0.0,0.0,25,0.00,,,0.00,LWC V2.11 B50,2013-01-23 18:16:00,
2013-01-23 11:21:00,48.8,13.6,30.48,NNE,30,0.0,1.0,24,0.00,,,0.00,LWC V2.11 B50,2013-01-23 18:21:00,
2013-01-23 11:26:00,49.2,14.0,30.47,NW,305,0.0,1.0,24,0.00,,,0.00,LWC V2.11 B50,2013-01-23 18:26:00,
2013-01-23 11:31:00,49.5,14.2,30.47,NW,306,0.0,1.0,24,0.00,,,0.00,LWC V2.11 B50,2013-01-23 18:31:00,
2013-01-23 11:36:00,50.1,14.7,30.47,WNW,301,0.0,0.0,24,0.00,,,0.00,LWC V2.11 B50,2013-01-23 18:36:00,
2013-01-23 11:41:00,50.8,14.4,30.46,ESE,123,1.0,2.0,23,0.00,,,0.00,LWC V2.11 B50,2013-01-23 18:41:00,
2013-01-23 11:46:00,51.3,13.8,30.46,ESE,119,0.0,1.0,22,0.00,,,0.00,LWC V2.11 B50,2013-01-23 18:46:00,
2013-01-23 11:51:00,51.5,14.9,30.45,South,185,0.0,2.0,23,0.00,,,0.00,LWC V2.11 B50,2013-01-23 18:51:00,
2013-01-23 11:56:00,51.9,14.3,30.45,East,101,2.0,2.0,22,0.00,,,0.00,LWC V2.11 B50,2013-01-23 18:56:00,
2013-01-23 12:01:00,52.1,14.4,30.45,SSW,212,3.0,5.0,22,0.00,,,0.00,LWC V2.11 B50,2013-01-23 19:01:00,
2013-01-23 12:06:00,51.8,14.2,30.44,SSE,155,2.0,4.0,22,0.00,,,0.00,LWC V2.11 B50,2013-01-23 19:06:00,
2013-01-23 12:11:00,52.0,14.4,30.44,SSW,200,0.0,5.0,22,0.00,,,0.00,LWC V2.11 B50,2013-01-23 19:11:00,
2013-01-23 12:16:00,52.1,13.4,30.43,SSE,153,0.0,1.0,21,0.00,,,0.00,LWC V2.11 B50,2013-01-23 19:16:00,
2013-01-23 12:21:00,52.3,14.6,30.43,ESE,113,2.0,3.0,22,0.00,,,0.00,LWC V2.11 B50,2013-01-23 19:21:00,
2013-01-23 12:26:00,52.7,14.9,30.42,South,188,3.0,3.0,22,0.00,,,0.00,LWC V2.11 B50,2013-01-23 19:26:00,
2013-01-23 12:31:00,53.0,14.1,30.42,ESE,121,3.0,3.0,21,0.00,,,0.00,LWC V2.11 B50,2013-01-23 19:31:00,
2013-01-23 12:36:00,53.3,14.4,30.42,SSE,162,0.0,3.0,21,0.00,,,0.00,LWC V2.11 B50,2013-01-23 19:36:00,
2013-01-23 12:41:00,53.5,13.4,30.42,SSW,192,0.0,1.0,20,0.00,,,0.00,LWC V2.11 B50,2013-01-23 19:41:00,
2013-01-23 12:46:00,53.8,14.8,30.42,ESE,103,1.0,3.0,21,0.00,,,0.00,LWC V2.11 B50,2013-01-23 19:46:00,
2013-01-23 12:51:00,54.1,13.9,30.41,South,170,1.0,4.0,20,0.00,,,0.00,LWC V2.11 B50,2013-01-23 19:51:00,
2013-01-23 12:56:00,54.0,13.9,30.41,SSE,152,1.0,4.0,20,0.00,,,0.00,LWC V2.11 B50,2013-01-23 19:56:00,
2013-01-23 13:01:00,54.2,14.0,30.41,SW,229,0.0,2.0,20,0.00,,,0.00,LWC V2.11 B50,2013-01-23 20:01:00,
2013-01-23 13:06:00,54.7,14.4,30.41,SE,136,0.0,4.0,20,0.00,,,0.00,LWC V2.11 B50,2013-01-23 20:06:00,
2013-01-23 13:11:00,55.1,14.8,30.40,South,175,2.0,3.0,20,0.00,,,0.00,LWC V2.11 B50,2013-01-23 20:11:00,
2013-01-23 13:16:00,55.4,13.8,30.40,SE,145,0.0,4.0,19,0.00,,,0.00,LWC V2.11 B50,2013-01-23 20:16:00,
2013-01-23 13:21:00,55.7,14.1,30.40,East,98,1.0,5.0,19,0.00,,,0.00,LWC V2.11 B50,2013-01-23 20:21:00,
2013-01-23 13:26:00,55.9,14.3,30.39,SSE,150,1.0,3.0,19,0.00,,,0.00,LWC V2.11 B50,2013-01-23 20:26:00,
2013-01-23 13:31:00,56.2,14.5,30.39,ESE,109,3.0,4.0,19,0.00,,,0.00,LWC V2.11 B50,2013-01-23 20:31:00,
2013-01-23 13:36:00,56.5,14.8,30.38,ESE,111,0.0,4.0,19,0.00,,,0.00,LWC V2.11 B50,2013-01-23 20:36:00,
2013-01-23 13:41:00,57.1,14.0,30.38,ESE,105,0.0,4.0,18,0.00,,,0.00,LWC V2.11 B50,2013-01-23 20:41:00,
2013-01-23 13:46:00,57.5,14.3,30.38,SE,134,0.0,5.0,18,0.00,,,0.00,LWC V2.11 B50,2013-01-23 20:46:00,
2013-01-23 13:51:00,57.8,14.6,30.38,South,172,2.0,3.0,18,0.00,,,0.00,LWC V2.11 B50,2013-01-23 20:51:00,
2013-01-23 13:56:00,57.5,13.0,30.38,South,173,4.0,5.0,17,0.00,,,0.00,LWC V2.11 B50,2013-01-23 20:56:00,
2013-01-23 14:01:00,57.1,12.7,30.38,SE,125,0.0,1.0,17,0.00,,,0.00,LWC V2.11 B50,2013-01-23 21:01:00,
2013-01-23 14:06:00,57.4,14.3,30.37,SE,130,0.0,1.0,18,0.00,,,0.00,LWC V2.11 B50,2013-01-23 21:06:00,
2013-01-23 14:11:00,58.0,13.5,30.37,South,173,1.0,1.0,17,0.00,,,0.00,LWC V2.11 B50,2013-01-23 21:11:00,
2013-01-23 14:16:00,58.6,13.9,30.37,SSW,200,0.0,5.0,17,0.00,,,0.00,LWC V2.11 B50,2013-01-23 21:16:00,
2013-01-23 14:21:00,58.7,14.0,30.37,SE,141,0.0,1.0,17,0.00,,,0.00,LWC V2.11 B50,2013-01-23 21:21:00,
2013-01-23 14:26:00,59.0,12.9,30.37,SE,145,1.0,6.0,16,0.00,,,0.00,LWC V2.11 B50,2013-01-23 21:26:00,
2013-01-23 14:31:00,59.0,12.9,30.37,South,183,2.0,2.0,16,0.00,,,0.00,LWC V2.11 B50,2013-01-23 21:31:00,
2013-01-23 14:36:00,59.4,13.2,30.37,SSW,200,1.0,1.0,16,0.00,,,0.00,LWC V2.11 B50,2013-01-23 21:36:00,
2013-01-23 14:41:00,59.4,13.2,30.37,South,187,2.0,2.0,16,0.00,,,0.00,LWC V2.11 B50,2013-01-23 21:41:00,
2013-01-23 14:46:00,59.0,12.9,30.37,SSW,192,0.0,1.0,16,0.00,,,0.00,LWC V2.11 B50,2013-01-23 21:46:00,
2013-01-23 14:51:00,58.8,12.7,30.37,SE,135,0.0,2.0,16,0.00,,,0.00,LWC V2.11 B50,2013-01-23 21:51:00,
2013-01-23 14:56:00,58.5,12.5,30.37,SSE,155,0.0,2.0,16,0.00,,,0.00,LWC V2.11 B50,2013-01-23 21:56:00,
2013-01-23 15:01:00,58.2,12.2,30.37,SSE,156,0.0,0.0,16,0.00,,,0.00,LWC V2.11 B50,2013-01-23 22:01:00,
2013-01-23 15:06:00,58.1,12.2,30.37,SSW,194,1.0,2.0,16,0.00,,,0.00,LWC V2.11 B50,2013-01-23 22:06:00,
2013-01-23 15:11:00,58.1,13.5,30.37,South,173,0.0,0.0,17,0.00,,,0.00,LWC V2.11 B50,2013-01-23 22:11:00,
2013-01-23 15:16:00,58.1,12.2,30.36,SSE,168,2.0,4.0,16,0.00,,,0.00,LWC V2.11 B50,2013-01-23 22:16:00,
2013-01-23 15:21:00,58.0,12.1,30.36,East,100,1.0,4.0,16,0.00,,,0.00,LWC V2.11 B50,2013-01-23 22:21:00,
2013-01-23 15:26:00,58.0,13.5,30.36,SSE,162,0.0,1.0,17,0.00,,,0.00,LWC V2.11 B50,2013-01-23 22:26:00,
2013-01-23 15:31:00,58.0,12.1,30.36,South,186,0.0,1.0,16,0.00,,,0.00,LWC V2.11 B50,2013-01-23 22:31:00,
2013-01-23 15:36:00,58.0,12.1,30.36,SSE,164,1.0,3.0,16,0.00,,,0.00,LWC V2.11 B50,2013-01-23 22:36:00,
2013-01-23 15:41:00,58.1,12.2,30.36,South,178,3.0,3.0,16,0.00,,,0.00,LWC V2.11 B50,2013-01-23 22:41:00,
2013-01-23 15:46:00,58.1,12.2,30.36,South,180,0.0,1.0,16,0.00,,,0.00,LWC V2.11 B50,2013-01-23 22:46:00,
2013-01-23 15:51:00,58.1,12.2,30.36,South,185,1.0,4.0,16,0.00,,,0.00,LWC V2.11 B50,2013-01-23 22:51:00,
2013-01-23 15:56:00,58.1,12.2,30.36,South,175,0.0,0.0,16,0.00,,,0.00,LWC V2.11 B50,2013-01-23 22:56:00,
2013-01-23 16:01:00,58.1,12.2,30.36,South,173,1.0,4.0,16,0.00,,,0.00,LWC V2.11 B50,2013-01-23 23:01:00,
2013-01-23 16:06:00,57.9,12.0,30.35,SSW,195,0.0,2.0,16,0.00,,,0.00,LWC V2.11 B50,2013-01-23 23:06:00,
2013-01-23 16:11:00,57.8,11.9,30.35,SSE,168,0.0,3.0,16,0.00,,,0.00,LWC V2.11 B50,2013-01-23 23:11:00,
2013-01-23 16:16:00,57.6,11.8,30.35,South,177,1.0,3.0,16,0.00,,,0.00,LWC V2.11 B50,2013-01-23 23:16:00,
2013-01-23 16:21:00,57.5,11.7,30.35,South,182,1.0,1.0,16,0.00,,,0.00,LWC V2.11 B50,2013-01-23 23:21:00,
2013-01-23 16:26:00,57.4,11.6,30.35,SSE,160,0.0,2.0,16,0.00,,,0.00,LWC V2.11 B50,2013-01-23 23:26:00,
2013-01-23 16:31:00,57.4,11.6,30.35,South,183,1.0,1.0,16,0.00,,,0.00,LWC V2.11 B50,2013-01-23 23:31:00,
2013-01-23 16:36:00,57.4,11.6,30.35,SSW,196,0.0,1.0,16,0.00,,,0.00,LWC V2.11 B50,2013-01-23 23:36:00,
2013-01-23 16:41:00,57.4,11.6,30.35,SW,215,0.0,1.0,16,0.00,,,0.00,LWC V2.11 B50,2013-01-23 23:41:00,
2013-01-23 16:46:00,57.2,12.8,30.35,SSW,209,0.0,1.0,17,0.00,,,0.00,LWC V2.11 B50,2013-01-23 23:46:00,
2013-01-23 16:51:00,57.0,12.6,30.35,SSW,209,0.0,0.0,17,0.00,,,0.00,LWC V2.11 B50,2013-01-23 23:51:00,
2013-01-23 16:56:00,56.7,12.4,30.35,SSW,209,0.0,0.0,17,0.00,,,0.00,LWC V2.11 B50,2013-01-23 23:56:00,
2013-01-23 17:01:00,56.4,12.1,30.35,SSW,209,0.0,0.0,17,0.00,,,0.00,LWC V2.11 B50,2013-01-24 00:01:00,
2013-01-23 17:06:00,56.0,11.8,30.35,SSW,209,0.0,0.0,17,0.00,,,0.00,LWC V2.11 B50,2013-01-24 00:06:00,
2013-01-23 17:11:00,55.5,12.7,30.35,SSW,209,0.0,0.0,18,0.00,,,0.00,LWC V2.11 B50,2013-01-24 00:11:00,
2013-01-23 17:16:00,54.9,12.2,30.35,SSW,209,0.0,0.0,18,0.00,,,0.00,LWC V2.11 B50,2013-01-24 00:16:00,
2013-01-23 17:21:00,54.2,11.6,30.35,SSW,209,0.0,0.0,18,0.00,,,0.00,LWC V2.11 B50,2013-01-24 00:21:00,
2013-01-23 17:26:00,53.6,11.1,30.35,SSW,209,0.0,0.0,18,0.00,,,0.00,LWC V2.11 B50,2013-01-24 00:26:00,
2013-01-23 17:31:00,52.8,10.5,30.36,SSW,209,0.0,0.0,18,0.00,,,0.00,LWC V2.11 B50,2013-01-24 00:31:00,
2013-01-23 17:36:00,51.9,11.0,30.35,SSW,209,0.0,0.0,19,0.00,,,0.00,LWC V2.11 B50,2013-01-24 00:36:00,
2013-01-23 17:41:00,51.2,10.4,30.36,SSW,209,0.0,0.0,19,0.00,,,0.00,LWC V2.11 B50,2013-01-24 00:41:00,
2013-01-23 17:46:00,50.4,10.9,30.36,SSW,209,0.0,0.0,20,0.00,,,0.00,LWC V2.11 B50,2013-01-24 00:46:00,
2013-01-23 17:51:00,49.7,10.3,30.36,SSW,209,0.0,0.0,20,0.00,,,0.00,LWC V2.11 B50,2013-01-24 00:51:00,
2013-01-23 17:56:00,49.3,10.0,30.36,SSW,209,0.0,0.0,20,0.00,,,0.00,LWC V2.11 B50,2013-01-24 00:56:00,
2013-01-23 18:01:00,48.8,10.6,30.36,SSW,209,0.0,0.0,21,0.00,,,0.00,LWC V2.11 B50,2013-01-24 01:01:00,
2013-01-23 18:06:00,48.3,10.2,30.36,SSW,209,1.0,1.0,21,0.00,,,0.00,LWC V2.11 B50,2013-01-24 01:06:00,
2013-01-23 18:11:00,48.2,10.1,30.36,SSW,209,0.0,0.0,21,0.00,,,0.00,LWC V2.11 B50,2013-01-24 01:11:00,
2013-01-23 18:16:00,47.9,9.9,30.36,SSW,209,0.0,0.0,21,0.00,,,0.00,LWC V2.11 B50,2013-01-24 01:16:00,
2013-01-23 18:21:00,47.4,10.5,30.36,SSW,209,0.0,1.0,22,0.00,,,0.00,LWC V2.11 B50,2013-01-24 01:21:00,
2013-01-23 18:26:00,47.4,10.5,30.36,WSW,245,0.0,1.0,22,0.00,,,0.00,LWC V2.11 B50,2013-01-24 01:26:00,
2013-01-23 18:31:00,47.5,10.6,30.36,WSW,245,0.0,0.0,22,0.00,,,0.00,LWC V2.11 B50,2013-01-24 01:31:00,
2013-01-23 18:36:00,47.4,10.5,30.36,WSW,248,0.0,1.0,22,0.00,,,0.00,LWC V2.11 B50,2013-01-24 01:36:00,
2013-01-23 18:41:00,47.4,10.5,30.36,West,269,0.0,2.0,22,0.00,,,0.00,LWC V2.11 B50,2013-01-24 01:41:00,
2013-01-23 18:46:00,47.5,9.5,30.36,West,264,0.0,0.0,21,0.00,,,0.00,LWC V2.11 B50,2013-01-24 01:46:00,
2013-01-23 18:51:00,47.4,10.5,30.36,West,264,0.0,0.0,22,0.00,,,0.00,LWC V2.11 B50,2013-01-24 01:51:00,
2013-01-23 18:56:00,47.2,10.3,30.36,West,264,0.0,0.0,22,0.00,,,0.00,LWC V2.11 B50,2013-01-24 01:56:00,
2013-01-23 19:01:00,46.9,10.1,30.36,West,263,0.0,0.0,22,0.00,,,0.00,LWC V2.11 B50,2013-01-24 02:01:00,
2013-01-23 19:06:00,46.6,9.8,30.36,West,263,0.0,0.0,22,0.00,,,0.00,LWC V2.11 B50,2013-01-24 02:06:00,
2013-01-23 19:11:00,46.3,10.6,30.36,West,263,0.0,0.0,23,0.00,,,0.00,LWC V2.11 B50,2013-01-24 02:11:00,
2013-01-23 19:17:00,46.1,10.4,30.36,SSW,194,0.0,1.0,23,0.00,,,0.00,LWC V2.11 B50,2013-01-24 02:17:00,
2013-01-23 19:22:00,45.8,10.1,30.36,SSW,194,0.0,0.0,23,0.00,,,0.00,LWC V2.11 B50,2013-01-24 02:22:00,
2013-01-23 19:27:00,45.4,9.8,30.36,SSW,194,0.0,0.0,23,0.00,,,0.00,LWC V2.11 B50,2013-01-24 02:27:00,
2013-01-23 19:32:00,45.1,9.5,30.36,NNE,33,2.0,2.0,23,0.00,,,0.00,LWC V2.11 B50,2013-01-24 02:32:00,
2013-01-23 19:37:00,44.8,10.2,30.37,North,0,0.0,0.0,24,0.00,,,0.00,LWC V2.11 B50,2013-01-24 02:37:00,
2013-01-23 19:42:00,44.5,9.0,30.37,NNE,12,0.0,0.0,23,0.00,,,0.00,LWC V2.11 B50,2013-01-24 02:42:00,
2013-01-23 19:47:00,43.9,9.5,30.36,NW,305,1.0,2.0,24,0.00,,,0.00,LWC V2.11 B50,2013-01-24 02:47:00,
2013-01-23 19:52:00,44.6,10.1,30.36,NW,305,4.0,5.0,24,0.00,,,0.00,LWC V2.11 B50,2013-01-24 02:52:00,
2013-01-23 19:57:00,46.1,11.3,30.36,NW,317,2.0,5.0,24,0.00,,,0.00,LWC V2.11 B50,2013-01-24 02:57:00,
2013-01-23 20:02:00,46.5,10.7,30.36,NW,315,0.0,3.0,23,0.00,,,0.00,LWC V2.11 B50,2013-01-24 03:02:00,
2013-01-23 20:07:00,46.2,10.5,30.37,NW,304,2.0,5.0,23,0.00,,,0.00,LWC V2.11 B50,2013-01-24 03:07:00,
2013-01-23 20:12:00,45.8,10.1,30.36,NW,306,0.0,1.0,23,0.00,,,0.00,LWC V2.11 B50,2013-01-24 03:12:00,
2013-01-23 20:16:00,45.3,9.7,30.37,West,275,4.0,4.0,23,0.00,,,0.00,LWC V2.11 B50,2013-01-24 03:16:00,
2013-01-23 20:21:00,45.0,9.5,30.37,NW,315,5.0,5.0,23,0.00,,,0.00,LWC V2.11 B50,2013-01-24 03:21:00,
2013-01-23 20:27:00,44.2,9.7,30.37,NW,320,1.0,5.0,24,0.00,,,0.00,LWC V2.11 B50,2013-01-24 03:27:00,
2013-01-23 20:32:00,43.9,9.5,30.37,NNW,338,6.0,6.0,24,0.00,,,0.00,LWC V2.11 B50,2013-01-24 03:32:00,
2013-01-23 20:37:00,44.0,9.6,30.37,WNW,293,3.0,7.0,24,0.00,,,0.00,LWC V2.11 B50,2013-01-24 03:37:00,
2013-01-23 20:42:00,44.1,9.6,30.37,NW,321,2.0,6.0,24,0.00,,,0.00,LWC V2.11 B50,2013-01-24 03:42:00,
2013-01-23 20:47:00,43.6,9.2,30.37,NW,317,4.0,6.0,24,0.00,,,0.00,LWC V2.11 B50,2013-01-24 03:47:00,
2013-01-23 20:51:00,43.8,9.4,30.37,NW,319,5.0,7.0,24,0.00,,,0.00,LWC V2.11 B50,2013-01-24 03:51:00,
2013-01-23 20:56:00,44.0,9.6,30.37,NW,311,2.0,4.0,24,0.00,,,0.00,LWC V2.11 B50,2013-01-24 03:56:00,
2013-01-23 21:01:00,44.3,9.8,30.37,WNW,302,1.0,3.0,24,0.00,,,0.00,LWC V2.11 B50,2013-01-24 04:01:00,
2013-01-23 21:06:00,44.2,8.8,30.37,WNW,297,2.0,5.0,23,0.00,,,0.00,LWC V2.11 B50,2013-01-24 04:06:00,
2013-01-23 21:11:00,44.2,9.7,30.37,WNW,293,1.0,3.0,24,0.00,,,0.00,LWC V2.11 B50,2013-01-24 04:11:00,
2013-01-23 21:16:00,44.3,9.8,30.37,NW,309,0.0,1.0,24,0.00,,,0.00,LWC V2.11 B50,2013-01-24 04:16:00,
2013-01-23 21:21:00,43.8,9.4,30.38,NNW,346,0.0,0.0,24,0.00,,,0.00,LWC V2.11 B50,2013-01-24 04:21:00,
2013-01-23 21:26:00,43.4,9.0,30.38,West,271,1.0,3.0,24,0.00,,,0.00,LWC V2.11 B50,2013-01-24 04:26:00,
2013-01-23 21:31:00,43.2,8.9,30.39,WNW,282,2.0,3.0,24,0.00,,,0.00,LWC V2.11 B50,2013-01-24 04:31:00,
2013-01-23 21:36:00,43.1,8.8,30.39,WNW,286,1.0,3.0,24,0.00,,,0.00,LWC V2.11 B50,2013-01-24 04:36:00,
2013-01-23 21:41:00,42.9,8.6,30.39,NW,320,0.0,2.0,24,0.00,,,0.00,LWC V2.11 B50,2013-01-24 04:41:00,
2013-01-23 21:46:00,42.3,8.1,30.40,NNW,337,0.0,1.0,24,0.00,,,0.00,LWC V2.11 B50,2013-01-24 04:46:00,
2013-01-23 21:51:00,41.7,7.6,30.40,NNW,337,0.0,0.0,24,0.00,,,0.00,LWC V2.11 B50,2013-01-24 04:51:00,
2013-01-23 21:56:00,41.0,7.9,30.40,NNW,337,0.0,0.0,25,0.00,,,0.00,LWC V2.11 B50,2013-01-24 04:56:00,
2013-01-23 22:00:00,40.6,7.6,30.40,NNW,343,0.0,0.0,25,0.00,,,0.00,LWC V2.11 B50,2013-01-24 05:00:00,
2013-01-23 22:05:00,39.8,8.6,30.40,NNW,343,0.0,0.0,27,0.00,,,0.00,LWC V2.11 B50,2013-01-24 05:05:00,
2013-01-23 22:10:00,39.2,8.1,30.40,NNW,343,0.0,0.0,27,0.00,,,0.00,LWC V2.11 B50,2013-01-24 05:10:00,
2013-01-23 22:15:00,38.7,8.4,30.40,NW,311,0.0,0.0,28,0.00,,,0.00,LWC V2.11 B50,2013-01-24 05:15:00,
2013-01-23 22:20:00,38.4,8.9,30.40,NW,311,0.0,0.0,29,0.00,,,0.00,LWC V2.11 B50,2013-01-24 05:20:00,
2013-01-23 22:25:00,38.2,8.8,30.40,NW,311,0.0,0.0,29,0.00,,,0.00,LWC V2.11 B50,2013-01-24 05:25:00,
2013-01-23 22:30:00,38.0,8.6,30.40,NW,311,0.0,0.0,29,0.00,,,0.00,LWC V2.11 B50,2013-01-24 05:30:00,
2013-01-23 22:35:00,37.9,8.5,30.40,NW,306,0.0,0.0,29,0.00,,,0.00,LWC V2.11 B50,2013-01-24 05:35:00,
2013-01-23 22:40:00,38.1,9.4,30.40,NNE,15,1.0,1.0,30,0.00,,,0.00,LWC V2.11 B50,2013-01-24 05:40:00,
2013-01-23 22:45:00,38.0,9.4,30.40,NNE,26,0.0,0.0,30,0.00,,,0.00,LWC V2.11 B50,2013-01-24 05:45:00,
2013-01-23 22:50:00,37.9,9.3,30.40,North,0,0.0,0.0,30,0.00,,,0.00,LWC V2.11 B50,2013-01-24 05:50:00,
2013-01-23 22:55:00,37.6,9.0,30.40,NNW,333,0.0,0.0,30,0.00,,,0.00,LWC V2.11 B50,2013-01-24 05:55:00,
2013-01-23 23:00:00,37.3,9.5,30.40,NNW,333,0.0,0.0,31,0.00,,,0.00,LWC V2.11 B50,2013-01-24 06:00:00,
2013-01-23 23:05:00,36.9,9.1,30.39,NNW,333,0.0,0.0,31,0.00,,,0.00,LWC V2.11 B50,2013-01-24 06:05:00,
2013-01-23 23:10:00,36.6,8.9,30.39,NNW,333,0.0,0.0,31,0.00,,,0.00,LWC V2.11 B50,2013-01-24 06:10:00,
2013-01-23 23:15:00,36.3,9.3,30.39,NNW,333,0.0,0.0,32,0.00,,,0.00,LWC V2.11 B50,2013-01-24 06:15:00,
2013-01-23 23:20:00,36.3,10.0,30.39,NW,320,0.0,0.0,33,0.00,,,0.00,LWC V2.11 B50,2013-01-24 06:20:00,
2013-01-23 23:25:00,36.5,9.5,30.39,NW,319,0.0,0.0,32,0.00,,,0.00,LWC V2.11 B50,2013-01-24 06:25:00,
2013-01-23 23:30:00,36.5,9.5,30.39,NW,319,0.0,0.0,32,0.00,,,0.00,LWC V2.11 B50,2013-01-24 06:30:00,
2013-01-23 23:35:00,36.2,8.5,30.39,NW,319,0.0,0.0,31,0.00,,,0.00,LWC V2.11 B50,2013-01-24 06:35:00,
2013-01-23 23:40:00,35.7,8.1,30.39,NW,319,0.0,0.0,31,0.00,,,0.00,LWC V2.11 B50,2013-01-24 06:40:00,
2013-01-23 23:45:00,35.0,7.5,30.39,NW,320,0.0,1.0,31,0.00,,,0.00,LWC V2.11 B50,2013-01-24 06:45:00,
2013-01-23 23:50:00,34.6,7.8,30.39,NW,320,0.0,0.0,32,0.00,,,0.00,LWC V2.11 B50,2013-01-24 06:50:00,
2013-01-23 23:55:00,34.4,7.6,30.39,NW,320,0.0,0.0,32,0.00,,,0.00,LWC V2.11 B50,2013-01-24 06:55:00,